Change the Weather History Date:

Wednesday, March 20, 2013

  Actual Average Record
Temperature  
Mean Temperature 38 °F -  
Max Temperature 41 °F - - ()
Min Temperature 34 °F - - ()
Degree Days  
Heating Degree Days 28    
Moisture  
Dew Point 30 °F    
Average Humidity 74    
Maximum Humidity 95    
Minimum Humidity 48    
Precipitation  
Precipitation 0.00 in - - ()
Sea Level Pressure  
Sea Level Pressure 29.56 in    
Wind  
Wind Speed 12 mph ()    
Max Wind Speed 17 mph    
Max Gust Speed -    
T = Trace of Precipitation, MM = Missing Value Source: Averaged Metar Reports

Daily Weather History Graph

Daily Weather History Graph

Search for Another Location

Airport or City:

Trip Planner

Search our weather history database for the weather conditions in past years. The results will help you decide how hot, cold, wet, or windy it might be!

Date:

Astronomy

Mar. 20, 2013 Rise Set
Actual Time 7:47 AM PDT 8:00 PM PDT
Civil Twilight 7:13 AM PDT 8:35 PM PDT
Nautical Twilight 6:32 AM PDT 9:16 PM PDT
Astronomical Twilight 5:49 AM PDT 9:59 PM PDT
Moon 12:58 PM PDT (3/20) 4:17 AM PDT (3/20)
Length of Visible Light 13h 21m
Length of Day
12h 12m
First Quarter, 60% of the Moon is Illuminated
Mar 20
First Quarter
Mar 27
Full
Apr 2
Last Quarter
Apr 10
New
Apr 18
First Quarter

Hourly Weather History & Observations

Time (PDT) Temp. Windchill Dew Point Humidity Pressure Visibility Wind Dir Wind Speed Gust Speed Precip Events Conditions
12:00 AM 34.9 °F 27.7 °F 33.6 °F 95% 29.49 in - NW 9.2 mph - N/A   Unknown
1:00 AM 34.7 °F 25.9 °F 33.1 °F 94% 29.46 in - NW 12.7 mph - N/A   Unknown
2:00 AM 35.1 °F 24.8 °F 31.3 °F 86% 29.44 in - NNW 17.3 mph - N/A   Unknown
3:00 AM 34.5 °F 24.5 °F 31.8 °F 90% 29.44 in - NNW 16.1 mph - N/A   Unknown
4:00 AM 34.9 °F 24.9 °F 31.8 °F 89% 29.43 in - NNW 16.1 mph - N/A   Unknown
5:00 AM 35 °F - 30 °F 77% 29.42 in - NNW 13.8 mph - -  
5:00 AM 34.9 °F 25.7 °F 30.4 °F 84% 29.42 in - NNW 13.8 mph - N/A   Unknown
6:00 AM 35.2 °F 25.8 °F 29.8 °F 81% 29.42 in - NW 15.0 mph - N/A   Unknown
7:00 AM 35.1 °F 27.4 °F 29.3 °F 80% 29.42 in - WNW 10.4 mph - N/A   Unknown
8:00 AM 34.9 °F 26.6 °F 28.2 °F 77% 29.43 in - WNW 11.5 mph - N/A   Unknown
9:00 AM 34.7 °F 25.5 °F 27.3 °F 74% 29.43 in - WNW 13.8 mph - N/A   Unknown
10:00 AM 36.5 °F 27.0 °F 27.5 °F 70% 29.45 in - WNW 16.1 mph - N/A   Unknown
11:00 AM 38 °F - 29 °F 60% 29.47 in - WNW 11.5 mph - -  
11:00 AM 37.8 °F 30.2 °F 28.9 °F 71% 29.47 in - WNW 11.5 mph - N/A   Unknown
12:00 PM 39.0 °F 31.8 °F 29.3 °F 68% 29.49 in - NW 11.5 mph - N/A   Unknown
1:00 PM 39.9 °F 32.1 °F 27.5 °F 61% 29.52 in - NW 13.8 mph - N/A   Unknown
2:00 PM 39.6 °F 30.6 °F 30.9 °F 71% 29.55 in - NNW 17.3 mph - N/A   Unknown
5:00 PM 41 °F - 28 °F 48% 29.66 in - West 16.1 mph - -  
5:00 PM 41.2 °F 33.0 °F 27.9 °F 59% 29.66 in - West 16.1 mph - N/A   Unknown
6:00 PM 41.0 °F 33.9 °F 24.1 °F 51% 29.70 in - WNW 12.7 mph - N/A   Unknown
7:00 PM 39.6 °F 31.0 °F 26.6 °F 60% 29.72 in - WNW 16.1 mph - N/A   Unknown
8:00 PM 37.8 °F 30.7 °F 28.2 °F 68% 29.76 in - WNW 10.4 mph - N/A   Unknown
9:00 PM 37.0 °F 29.3 °F 29.1 °F 73% 29.79 in - WNW 11.5 mph - N/A   Unknown
10:00 PM 35.6 °F 29.9 °F 30.9 °F 83% 29.82 in - West 6.9 mph - N/A   Unknown
11:00 PM 36 °F - 31 °F 77% 29.84 in - West 9.2 mph - -  
11:00 PM 35.6 °F 28.6 °F 31.5 °F 85% 29.84 in - West 9.2 mph - N/A   Unknown